Flag for French Polynesia Weather past 2 weeks in Gambier Islands, French Polynesia

Now
83 °F

Overcast.


Feels Like: 89 °F
Forecast: 78 / 83 °F
Wind: 7 mph from Northeast

Location: Rikitea

Current Time: Mar 2, 2015 at 12:20:49 PM

Latest Report: Mar 2, 2015 at 11:00 AM


Visibility: 19 mi

Pressure: 30.08 "Hg

Humidity: 77%

Dew point: 75 °F

Location of Gambier IslandsLocation

Historic Weather in Gambier Islands — Graph

°F

Gambier Islands temperature yesterday

Maximum temperature yesterday: 83 °F (at 1:00 PM)
Minimum temperature yesterday: 76 °F (at 7:00 AM)
Average temperature yesterday: 78 °F

Past Weeks' High & Low Weather Summary

 TemperatureHumidityPressure
High85 °F (Feb 19, 12:00 PM)96% (Feb 28, 1:00 AM)30.19 "Hg (Feb 28, 1:00 AM)
Low69 °F (Feb 26, 9:00 PM)65% (Feb 23, 1:00 PM)29.85 "Hg (Feb 24, 4:00 PM)
Average78 °F81%30.04 "Hg
* Reported Feb 15 11:00 AM — Mar 2 11:00 AM, Gambier Islands, Weather by CustomWeather, © 2015

Note: Actual official high and low records may vary slightly from our data, if they occured in-between our weather recording intervals... More about our weather records

Advertising

Gambier Islands weather history for previous 24 hours

 ConditionsComfort  
Time TempWeatherWind HumidityBarometerVisibility
11:00 AM
Mon, Mar 2
83 °FOvercast.7 mph77%30.08 "Hg19 mi
10:00 AM82 °FOvercast.7 mph76%30.09 "Hg19 mi
9:00 AM77 °FOvercast.6 mph82%30.06 "Hg19 mi
8:00 AM79 °FOvercast.7 mph80%30.09 "Hg19 mi
7:00 AM78 °FOvercast.N/A82%30.07 "Hg19 mi
6:00 AM77 °FMild.N/A82%30.06 "HgN/A
5:00 AM76 °FMild.N/A83%30.04 "HgN/A
4:00 AM76 °FMild.N/A86%30.02 "HgN/A
3:00 AM76 °FMild.N/A88%30.03 "HgN/A
2:00 AM77 °FMild.N/A85%30.03 "HgN/A
1:00 AM77 °FWarm.N/A83%30.05 "HgN/A
12:00 AM77 °FWarm.6 mph82%30.06 "HgN/A
11:00 PM
Sun, Mar 1
78 °FWarm.7 mph83%30.06 "HgN/A
10:00 PM77 °FWarm.6 mph84%30.07 "HgN/A
9:00 PM78 °FWarm.5 mph83%30.07 "HgN/A
8:00 PM78 °FWarm.6 mph81%30.05 "HgN/A
7:00 PM78 °FWarm.6 mph80%30.04 "HgN/A
6:00 PM78 °FWarm.6 mph82%30.02 "HgN/A
5:00 PM78 °FPassing clouds.7 mph81%30.01 "Hg25 mi
4:00 PM80 °FWarm.7 mph78%29.99 "HgN/A
3:00 PM81 °FPartly sunny.7 mph75%29.99 "Hg25 mi
2:00 PM82 °FWarm.8 mph73%30.01 "HgN/A
1:00 PM83 °FWarm.6 mph76%30.02 "HgN/A
Weather by CustomWeather, © 2015

See weather overviewHow to use our weather pages